"Ground temperature observations at upper spruce site (shallow sensors), Twelvemile Lake, Yukon Flats, Alaska"
#,Date and time (GMT-09:00),Temperature (deg C) - Ch 1,Temperature (deg C) - Ch 2,Temperature (deg C) - Ch 3
1,9/30/2010 12:33,-0.99,0.02,0.05
2,9/30/2010 13:33,-0.68,-0.56,0.02
3,9/30/2010 14:33,-1.07,-0.68,0.14
4,9/30/2010 15:33,-1.13,-0.65,0.16
5,9/30/2010 16:33,-1.16,-0.65,0.19
6,9/30/2010 17:33,-1.16,-0.62,0.22
7,9/30/2010 18:33,-1.16,-0.62,0.22
8,9/30/2010 19:33,-1.21,-0.59,0.22
9,9/30/2010 20:33,-1.24,-0.59,0.22
10,9/30/2010 21:33,-1.33,-0.59,0.22
11,9/30/2010 22:33,-1.38,-0.56,0.22
12,9/30/2010 23:33,-1.47,-0.56,0.22
13,10/1/2010 0:33,-1.56,-0.54,0.22
14,10/1/2010 1:33,-1.64,-0.54,0.22
15,10/1/2010 2:33,-1.7,-0.54,0.22
16,10/1/2010 3:33,-1.79,-0.54,0.22
17,10/1/2010 4:33,-1.87,-0.51,0.22
18,10/1/2010 5:33,-1.96,-0.51,0.22
19,10/1/2010 6:33,-2.02,-0.51,0.22
20,10/1/2010 7:33,-2.07,-0.51,0.25
21,10/1/2010 8:33,-2.16,-0.51,0.25
22,10/1/2010 9:33,-2.19,-0.51,0.25
23,10/1/2010 10:33,-2.25,-0.51,0.25
24,10/1/2010 11:33,-2.19,-0.51,0.25
25,10/1/2010 12:33,-2.1,-0.51,0.25
26,10/1/2010 13:33,-1.96,-0.54,0.25
27,10/1/2010 14:33,-1.81,-0.54,0.25
28,10/1/2010 15:33,-1.7,-0.54,0.25
29,10/1/2010 16:33,-1.58,-0.54,0.25
30,10/1/2010 17:33,-1.47,-0.54,0.25
31,10/1/2010 18:33,-1.38,-0.54,0.25
32,10/1/2010 19:33,-1.3,-0.54,0.25
33,10/1/2010 20:33,-1.24,-0.54,0.25
34,10/1/2010 21:33,-1.16,-0.51,0.25
35,10/1/2010 22:33,-1.1,-0.51,0.25
36,10/1/2010 23:33,-1.07,-0.51,0.25
37,10/2/2010 0:33,-1.02,-0.51,0.25
38,10/2/2010 1:33,-0.99,-0.48,0.25
39,10/2/2010 2:33,-0.93,-0.48,0.25
40,10/2/2010 3:33,-0.9,-0.48,0.25
41,10/2/2010 4:33,-0.87,-0.48,0.25
42,10/2/2010 5:33,-0.85,-0.45,0.25
43,10/2/2010 6:33,-0.82,-0.45,0.25
44,10/2/2010 7:33,-0.79,-0.42,0.25
45,10/2/2010 8:33,-0.76,-0.42,0.25
46,10/2/2010 9:33,-0.73,-0.42,0.25
47,10/2/2010 10:33,-0.7,-0.42,0.25
48,10/2/2010 11:33,-0.7,-0.39,0.25
49,10/2/2010 12:33,-0.68,-0.37,0.25
50,10/2/2010 13:33,-0.65,-0.37,0.25
51,10/2/2010 14:33,-0.62,-0.37,0.25
52,10/2/2010 15:33,-0.59,-0.37,0.25
53,10/2/2010 16:33,-0.56,-0.37,0.25
54,10/2/2010 17:33,-0.54,-0.37,0.25
55,10/2/2010 18:33,-0.51,-0.34,0.25
56,10/2/2010 19:33,-0.48,-0.34,0.25
57,10/2/2010 20:33,-0.48,-0.34,0.25
58,10/2/2010 21:33,-0.48,-0.31,0.25
59,10/2/2010 22:33,-0.45,-0.31,0.25
60,10/2/2010 23:33,-0.42,-0.31,0.25
61,10/3/2010 0:33,-0.42,-0.28,0.25
62,10/3/2010 1:33,-0.39,-0.28,0.25
63,10/3/2010 2:33,-0.37,-0.28,0.25
64,10/3/2010 3:33,-0.37,-0.28,0.25
65,10/3/2010 4:33,-0.37,-0.26,0.25
66,10/3/2010 5:33,-0.37,-0.26,0.25
67,10/3/2010 6:33,-0.37,-0.26,0.25
68,10/3/2010 7:33,-0.39,-0.26,0.25
69,10/3/2010 8:33,-0.42,-0.26,0.25
70,10/3/2010 9:33,-0.48,-0.23,0.25
71,10/3/2010 10:33,-0.54,-0.23,0.25
72,10/3/2010 11:33,-0.59,-0.23,0.25
73,10/3/2010 12:33,-0.62,-0.23,0.25
74,10/3/2010 13:33,-0.65,-0.2,0.25
75,10/3/2010 14:33,-0.62,-0.2,0.25
76,10/3/2010 15:33,-0.56,-0.2,0.25
77,10/3/2010 16:33,-0.54,-0.2,0.25
78,10/3/2010 17:33,-0.48,-0.2,0.25
79,10/3/2010 18:33,-0.48,-0.2,0.25
80,10/3/2010 19:33,-0.45,-0.2,0.25
81,10/3/2010 20:33,-0.45,-0.2,0.25
82,10/3/2010 21:33,-0.42,-0.2,0.25
83,10/3/2010 22:33,-0.42,-0.2,0.25
84,10/3/2010 23:33,-0.37,-0.2,0.25
85,10/4/2010 0:33,-0.37,-0.17,0.25
86,10/4/2010 1:33,-0.37,-0.17,0.25
87,10/4/2010 2:33,-0.37,-0.17,0.25
88,10/4/2010 3:33,-0.39,-0.17,0.25
89,10/4/2010 4:33,-0.45,-0.17,0.25
90,10/4/2010 5:33,-0.51,-0.14,0.25
91,10/4/2010 6:33,-0.62,-0.14,0.25
92,10/4/2010 7:33,-0.73,-0.14,0.25
93,10/4/2010 8:33,-0.85,-0.14,0.25
94,10/4/2010 9:33,-0.9,-0.14,0.25
95,10/4/2010 10:33,-0.93,-0.14,0.25
96,10/4/2010 11:33,-0.87,-0.14,0.25
97,10/4/2010 12:33,-0.79,-0.14,0.25
98,10/4/2010 13:33,-0.7,-0.14,0.25
99,10/4/2010 14:33,-0.65,-0.14,0.25
100,10/4/2010 15:33,-0.59,-0.14,0.25
101,10/4/2010 16:33,-0.54,-0.14,0.25
102,10/4/2010 17:33,-0.51,-0.14,0.25
103,10/4/2010 18:33,-0.48,-0.14,0.25
104,10/4/2010 19:33,-0.48,-0.14,0.25
105,10/4/2010 20:33,-0.45,-0.14,0.25
106,10/4/2010 21:33,-0.42,-0.14,0.27
107,10/4/2010 22:33,-0.39,-0.14,0.25
108,10/4/2010 23:33,-0.37,-0.14,0.25
109,10/5/2010 0:33,-0.37,-0.14,0.25
110,10/5/2010 1:33,-0.37,-0.14,0.25
111,10/5/2010 2:33,-0.34,-0.14,0.25
112,10/5/2010 3:33,-0.31,-0.14,0.25
113,10/5/2010 4:33,-0.31,-0.14,0.25
114,10/5/2010 5:33,-0.31,-0.12,0.27
115,10/5/2010 6:33,-0.28,-0.12,0.25
116,10/5/2010 7:33,-0.28,-0.12,0.25
117,10/5/2010 8:33,-0.26,-0.12,0.25
118,10/5/2010 9:33,-0.26,-0.12,0.27
119,10/5/2010 10:33,-0.26,-0.12,0.25
120,10/5/2010 11:33,-0.26,-0.12,0.27
121,10/5/2010 12:33,-0.26,-0.12,0.25
122,10/5/2010 13:33,-0.23,-0.12,0.25
123,10/5/2010 14:33,-0.23,-0.12,0.25
124,10/5/2010 15:33,-0.23,-0.09,0.25
125,10/5/2010 16:33,-0.2,-0.09,0.27
126,10/5/2010 17:33,-0.2,-0.09,0.25
127,10/5/2010 18:33,-0.2,-0.09,0.27
128,10/5/2010 19:33,-0.2,-0.09,0.27
129,10/5/2010 20:33,-0.2,-0.09,0.27
130,10/5/2010 21:33,-0.17,-0.09,0.27
131,10/5/2010 22:33,-0.17,-0.09,0.27
132,10/5/2010 23:33,-0.14,-0.09,0.27
133,10/6/2010 0:33,-0.14,-0.09,0.27
134,10/6/2010 1:33,-0.14,-0.09,0.27
135,10/6/2010 2:33,-0.14,-0.09,0.27
136,10/6/2010 3:33,-0.14,-0.09,0.27
137,10/6/2010 4:33,-0.14,-0.09,0.27
138,10/6/2010 5:33,-0.14,-0.06,0.27
139,10/6/2010 6:33,-0.14,-0.06,0.27
140,10/6/2010 7:33,-0.14,-0.06,0.27
141,10/6/2010 8:33,-0.14,-0.06,0.27
142,10/6/2010 9:33,-0.17,-0.06,0.27
143,10/6/2010 10:33,-0.2,-0.06,0.27
144,10/6/2010 11:33,-0.2,-0.06,0.27
145,10/6/2010 12:33,-0.23,-0.06,0.27
146,10/6/2010 13:33,-0.28,-0.06,0.27
147,10/6/2010 14:33,-0.31,-0.06,0.27
148,10/6/2010 15:33,-0.31,-0.06,0.27
149,10/6/2010 16:33,-0.31,-0.06,0.27
150,10/6/2010 17:33,-0.31,-0.06,0.27
151,10/6/2010 18:33,-0.28,-0.06,0.27
152,10/6/2010 19:33,-0.28,-0.06,0.27
153,10/6/2010 20:33,-0.28,-0.06,0.27
154,10/6/2010 21:33,-0.28,-0.06,0.27
155,10/6/2010 22:33,-0.28,-0.06,0.27
156,10/6/2010 23:33,-0.28,-0.06,0.27
157,10/7/2010 0:33,-0.28,-0.06,0.27
158,10/7/2010 1:33,-0.28,-0.06,0.27
159,10/7/2010 2:33,-0.31,-0.06,0.27
160,10/7/2010 3:33,-0.31,-0.06,0.27
161,10/7/2010 4:33,-0.31,-0.06,0.27
162,10/7/2010 5:33,-0.34,-0.06,0.27
163,10/7/2010 6:33,-0.34,-0.06,0.27
164,10/7/2010 7:33,-0.37,-0.06,0.27
165,10/7/2010 8:33,-0.37,-0.06,0.27
166,10/7/2010 9:33,-0.37,-0.06,0.27
167,10/7/2010 10:33,-0.37,-0.06,0.27
168,10/7/2010 11:33,-0.37,-0.06,0.27
169,10/7/2010 12:33,-0.37,-0.03,0.27
170,10/7/2010 13:33,-0.37,-0.03,0.27
171,10/7/2010 14:33,-0.34,-0.06,0.27
172,10/7/2010 15:33,-0.34,-0.06,0.27
173,10/7/2010 16:33,-0.31,-0.06,0.27
174,10/7/2010 17:33,-0.31,-0.06,0.27
175,10/7/2010 18:33,-0.31,-0.06,0.27
176,10/7/2010 19:33,-0.28,-0.03,0.27
177,10/7/2010 20:33,-0.28,-0.03,0.27
178,10/7/2010 21:33,-0.28,-0.03,0.27
179,10/7/2010 22:33,-0.28,-0.03,0.27
180,10/7/2010 23:33,-0.31,-0.03,0.27
181,10/8/2010 0:33,-0.31,-0.03,0.27
182,10/8/2010 1:33,-0.31,-0.03,0.27
183,10/8/2010 2:33,-0.31,-0.03,0.27
184,10/8/2010 3:33,-0.34,-0.03,0.27
185,10/8/2010 4:33,-0.34,-0.03,0.27
186,10/8/2010 5:33,-0.37,-0.03,0.27
187,10/8/2010 6:33,-0.37,-0.03,0.27
188,10/8/2010 7:33,-0.37,-0.03,0.27
189,10/8/2010 8:33,-0.37,-0.03,0.27
190,10/8/2010 9:33,-0.37,-0.03,0.27
191,10/8/2010 10:33,-0.37,-0.03,0.27
192,10/8/2010 11:33,-0.42,-0.03,0.27
193,10/8/2010 12:33,-0.42,-0.03,0.27
194,10/8/2010 13:33,-0.42,-0.03,0.27
195,10/8/2010 14:33,-0.42,-0.03,0.27
196,10/8/2010 15:33,-0.42,-0.03,0.27
197,10/8/2010 16:33,-0.42,-0.06,0.27
198,10/8/2010 17:33,-0.42,-0.06,0.27
199,10/8/2010 18:33,-0.42,-0.06,0.27
200,10/8/2010 19:33,-0.42,-0.06,0.27
201,10/8/2010 20:33,-0.42,-0.06,0.27
202,10/8/2010 21:33,-0.42,-0.06,0.27
203,10/8/2010 22:33,-0.42,-0.06,0.27
204,10/8/2010 23:33,-0.45,-0.06,0.27
205,10/9/2010 0:33,-0.48,-0.06,0.27
206,10/9/2010 1:33,-0.48,-0.06,0.27
207,10/9/2010 2:33,-0.51,-0.06,0.27
208,10/9/2010 3:33,-0.54,-0.06,0.27
209,10/9/2010 4:33,-0.56,-0.06,0.27
210,10/9/2010 5:33,-0.62,-0.06,0.27
211,10/9/2010 6:33,-0.68,-0.06,0.27
212,10/9/2010 7:33,-0.73,-0.06,0.27
213,10/9/2010 8:33,-0.79,-0.06,0.27
214,10/9/2010 9:33,-0.87,-0.06,0.27
215,10/9/2010 10:33,-0.96,-0.09,0.27
216,10/9/2010 11:33,-1.02,-0.09,0.27
217,10/9/2010 12:33,-1.07,-0.09,0.27
218,10/9/2010 13:33,-1.13,-0.09,0.27
219,10/9/2010 14:33,-1.16,-0.09,0.27
220,10/9/2010 15:33,-1.19,-0.09,0.27
221,10/9/2010 16:33,-1.19,-0.09,0.27
222,10/9/2010 17:33,-1.21,-0.12,0.27
223,10/9/2010 18:33,-1.21,-0.12,0.27
224,10/9/2010 19:33,-1.19,-0.12,0.27
225,10/9/2010 20:33,-1.19,-0.12,0.27
226,10/9/2010 21:33,-1.16,-0.14,0.27
227,10/9/2010 22:33,-1.16,-0.14,0.27
228,10/9/2010 23:33,-1.16,-0.14,0.27
229,10/10/2010 0:33,-1.16,-0.14,0.27
230,10/10/2010 1:33,-1.16,-0.14,0.27
231,10/10/2010 2:33,-1.16,-0.14,0.27
232,10/10/2010 3:33,-1.16,-0.14,0.27
233,10/10/2010 4:33,-1.19,-0.14,0.27
234,10/10/2010 5:33,-1.21,-0.17,0.27
235,10/10/2010 6:33,-1.24,-0.17,0.27
236,10/10/2010 7:33,-1.24,-0.17,0.27
237,10/10/2010 8:33,-1.27,-0.17,0.27
238,10/10/2010 9:33,-1.27,-0.17,0.27
239,10/10/2010 10:33,-1.27,-0.2,0.27
240,10/10/2010 11:33,-1.27,-0.2,0.25
241,10/10/2010 12:33,-1.24,-0.2,0.27
242,10/10/2010 13:33,-1.21,-0.2,0.27
243,10/10/2010 14:33,-1.19,-0.2,0.27
244,10/10/2010 15:33,-1.16,-0.2,0.27
245,10/10/2010 16:33,-1.16,-0.2,0.25
246,10/10/2010 17:33,-1.13,-0.2,0.27
247,10/10/2010 18:33,-1.1,-0.23,0.27
248,10/10/2010 19:33,-1.07,-0.23,0.25
249,10/10/2010 20:33,-1.04,-0.23,0.25
250,10/10/2010 21:33,-1.04,-0.23,0.27
251,10/10/2010 22:33,-1.04,-0.23,0.25
252,10/10/2010 23:33,-1.04,-0.23,0.25
253,10/11/2010 0:33,-1.04,-0.23,0.25
254,10/11/2010 1:33,-1.04,-0.23,0.25
255,10/11/2010 2:33,-1.04,-0.23,0.25
256,10/11/2010 3:33,-1.02,-0.23,0.25
257,10/11/2010 4:33,-1.02,-0.23,0.25
258,10/11/2010 5:33,-1.02,-0.23,0.25
259,10/11/2010 6:33,-1.02,-0.23,0.25
260,10/11/2010 7:33,-1.02,-0.23,0.25
261,10/11/2010 8:33,-1.02,-0.23,0.25
262,10/11/2010 9:33,-1.02,-0.23,0.25
263,10/11/2010 10:33,-1.02,-0.23,0.25
264,10/11/2010 11:33,-1.02,-0.23,0.25
265,10/11/2010 12:33,-1.02,-0.23,0.25
266,10/11/2010 13:33,-0.99,-0.23,0.25
267,10/11/2010 14:33,-0.99,-0.23,0.25
268,10/11/2010 15:33,-0.96,-0.23,0.25
269,10/11/2010 16:33,-0.93,-0.23,0.25
270,10/11/2010 17:33,-0.93,-0.23,0.25
271,10/11/2010 18:33,-0.93,-0.23,0.25
272,10/11/2010 19:33,-0.9,-0.23,0.25
273,10/11/2010 20:33,-0.9,-0.23,0.25
274,10/11/2010 21:33,-0.9,-0.23,0.25
275,10/11/2010 22:33,-0.9,-0.23,0.25
276,10/11/2010 23:33,-0.9,-0.23,0.25
277,10/12/2010 0:33,-0.9,-0.23,0.25
278,10/12/2010 1:33,-0.93,-0.23,0.25
279,10/12/2010 2:33,-0.93,-0.23,0.25
280,10/12/2010 3:33,-0.96,-0.23,0.25
281,10/12/2010 4:33,-0.99,-0.23,0.25
282,10/12/2010 5:33,-0.99,-0.23,0.25
283,10/12/2010 6:33,-1.02,-0.23,0.25
284,10/12/2010 7:33,-1.04,-0.23,0.25
285,10/12/2010 8:33,-1.04,-0.23,0.25
286,10/12/2010 9:33,-1.1,-0.23,0.25
287,10/12/2010 10:33,-1.13,-0.23,0.25
288,10/12/2010 11:33,-1.16,-0.23,0.25
289,10/12/2010 12:33,-1.16,-0.23,0.25
290,10/12/2010 13:33,-1.16,-0.23,0.25
291,10/12/2010 14:33,-1.16,-0.23,0.25
292,10/12/2010 15:33,-1.16,-0.23,0.25
293,10/12/2010 16:33,-1.16,-0.26,0.25
294,10/12/2010 17:33,-1.16,-0.26,0.25
295,10/12/2010 18:33,-1.16,-0.26,0.25
296,10/12/2010 19:33,-1.16,-0.26,0.25
297,10/12/2010 20:33,-1.16,-0.26,0.25
298,10/12/2010 21:33,-1.19,-0.26,0.25
299,10/12/2010 22:33,-1.21,-0.26,0.25
300,10/12/2010 23:33,-1.24,-0.26,0.25
301,10/13/2010 0:33,-1.27,-0.26,0.25
302,10/13/2010 1:33,-1.3,-0.26,0.25
303,10/13/2010 2:33,-1.33,-0.26,0.25
304,10/13/2010 3:33,-1.36,-0.26,0.25
305,10/13/2010 4:33,-1.38,-0.26,0.25
306,10/13/2010 5:33,-1.41,-0.26,0.25
307,10/13/2010 6:33,-1.44,-0.26,0.25
308,10/13/2010 7:33,-1.5,-0.26,0.25
309,10/13/2010 8:33,-1.53,-0.26,0.25
310,10/13/2010 9:33,-1.58,-0.26,0.25
311,10/13/2010 10:33,-1.61,-0.28,0.25
312,10/13/2010 11:33,-1.64,-0.28,0.25
313,10/13/2010 12:33,-1.7,-0.28,0.25
314,10/13/2010 13:33,-1.73,-0.28,0.25
315,10/13/2010 14:33,-1.76,-0.28,0.25
316,10/13/2010 15:33,-1.79,-0.31,0.25
317,10/13/2010 16:33,-1.79,-0.31,0.25
318,10/13/2010 17:33,-1.81,-0.31,0.25
319,10/13/2010 18:33,-1.84,-0.31,0.25
320,10/13/2010 19:33,-1.84,-0.31,0.25
321,10/13/2010 20:33,-1.87,-0.31,0.25
322,10/13/2010 21:33,-1.9,-0.34,0.25
323,10/13/2010 22:33,-1.93,-0.34,0.25
324,10/13/2010 23:33,-1.93,-0.34,0.25
325,10/14/2010 0:33,-1.96,-0.34,0.25
326,10/14/2010 1:33,-1.96,-0.34,0.25
327,10/14/2010 2:33,-1.99,-0.37,0.25
328,10/14/2010 3:33,-2.02,-0.37,0.25
329,10/14/2010 4:33,-2.07,-0.37,0.25
330,10/14/2010 5:33,-2.13,-0.37,0.25
331,10/14/2010 6:33,-2.16,-0.37,0.25
332,10/14/2010 7:33,-2.25,-0.37,0.25
333,10/14/2010 8:33,-2.31,-0.37,0.25
334,10/14/2010 9:33,-2.33,-0.37,0.25
335,10/14/2010 10:33,-2.36,-0.39,0.25
336,10/14/2010 11:33,-2.39,-0.39,0.25
337,10/14/2010 12:33,-2.42,-0.42,0.25
338,10/14/2010 13:33,-2.39,-0.42,0.25
339,10/14/2010 14:33,-2.36,-0.42,0.25
340,10/14/2010 15:33,-2.33,-0.42,0.25
341,10/14/2010 16:33,-2.31,-0.45,0.25
342,10/14/2010 17:33,-2.31,-0.45,0.25
343,10/14/2010 18:33,-2.28,-0.45,0.25
344,10/14/2010 19:33,-2.28,-0.48,0.25
345,10/14/2010 20:33,-2.28,-0.48,0.25
346,10/14/2010 21:33,-2.28,-0.48,0.25
347,10/14/2010 22:33,-2.31,-0.48,0.25
348,10/14/2010 23:33,-2.31,-0.48,0.25
349,10/15/2010 0:33,-2.33,-0.48,0.25
350,10/15/2010 1:33,-2.36,-0.48,0.25
351,10/15/2010 2:33,-2.39,-0.51,0.25
352,10/15/2010 3:33,-2.42,-0.51,0.25
353,10/15/2010 4:33,-2.48,-0.51,0.25
354,10/15/2010 5:33,-2.51,-0.54,0.25
355,10/15/2010 6:33,-2.57,-0.54,0.25
356,10/15/2010 7:33,-2.6,-0.54,0.25
357,10/15/2010 8:33,-2.63,-0.54,0.25
358,10/15/2010 9:33,-2.65,-0.54,0.25
359,10/15/2010 10:33,-2.68,-0.54,0.25
360,10/15/2010 11:33,-2.71,-0.56,0.25
361,10/15/2010 12:33,-2.71,-0.56,0.25
362,10/15/2010 13:33,-2.74,-0.56,0.25
363,10/15/2010 14:33,-2.74,-0.59,0.25
364,10/15/2010 15:33,-2.74,-0.59,0.22
365,10/15/2010 16:33,-2.74,-0.59,0.22
366,10/15/2010 17:33,-2.74,-0.59,0.22
367,10/15/2010 18:33,-2.74,-0.59,0.22
368,10/15/2010 19:33,-2.74,-0.59,0.22
369,10/15/2010 20:33,-2.77,-0.62,0.22
370,10/15/2010 21:33,-2.77,-0.62,0.25
371,10/15/2010 22:33,-2.83,-0.65,0.22
372,10/15/2010 23:33,-2.83,-0.65,0.22
373,10/16/2010 0:33,-2.86,-0.65,0.22
374,10/16/2010 1:33,-2.89,-0.65,0.25
375,10/16/2010 2:33,-2.92,-0.65,0.22
376,10/16/2010 3:33,-2.98,-0.65,0.22
377,10/16/2010 4:33,-3.04,-0.68,0.22
378,10/16/2010 5:33,-3.07,-0.68,0.22
379,10/16/2010 6:33,-3.12,-0.68,0.22
380,10/16/2010 7:33,-3.18,-0.68,0.22
381,10/16/2010 8:33,-3.24,-0.7,0.22
382,10/16/2010 9:33,-3.3,-0.7,0.22
383,10/16/2010 10:33,-3.36,-0.7,0.22
384,10/16/2010 11:33,-3.42,-0.7,0.22
385,10/16/2010 12:33,-3.48,-0.7,0.22
386,10/16/2010 13:33,-3.54,-0.73,0.22
387,10/16/2010 14:33,-3.57,-0.73,0.22
388,10/16/2010 15:33,-3.6,-0.76,0.22
389,10/16/2010 16:33,-3.6,-0.76,0.22
390,10/16/2010 17:33,-3.57,-0.76,0.22
391,10/16/2010 18:33,-3.54,-0.79,0.22
392,10/16/2010 19:33,-3.54,-0.79,0.22
393,10/16/2010 20:33,-3.54,-0.79,0.22
394,10/16/2010 21:33,-3.54,-0.79,0.22
395,10/16/2010 22:33,-3.57,-0.82,0.22
396,10/16/2010 23:33,-3.57,-0.82,0.22
397,10/17/2010 0:33,-3.6,-0.82,0.22
398,10/17/2010 1:33,-3.6,-0.82,0.22
399,10/17/2010 2:33,-3.6,-0.85,0.22
400,10/17/2010 3:33,-3.63,-0.85,0.22
401,10/17/2010 4:33,-3.66,-0.87,0.22
402,10/17/2010 5:33,-3.66,-0.87,0.22
403,10/17/2010 6:33,-3.66,-0.87,0.22
404,10/17/2010 7:33,-3.69,-0.87,0.22
405,10/17/2010 8:33,-3.69,-0.87,0.22
406,10/17/2010 9:33,-3.69,-0.9,0.22
407,10/17/2010 10:33,-3.69,-0.9,0.22
408,10/17/2010 11:33,-3.69,-0.9,0.22
409,10/17/2010 12:33,-3.69,-0.9,0.22
410,10/17/2010 13:33,-3.66,-0.93,0.22
411,10/17/2010 14:33,-3.6,-0.93,0.22
412,10/17/2010 15:33,-3.54,-0.93,0.22
413,10/17/2010 16:33,-3.48,-0.93,0.22
414,10/17/2010 17:33,-3.42,-0.93,0.22
415,10/17/2010 18:33,-3.36,-0.93,0.22
416,10/17/2010 19:33,-3.3,-0.96,0.22
417,10/17/2010 20:33,-3.24,-0.96,0.22
418,10/17/2010 21:33,-3.21,-0.96,0.22
419,10/17/2010 22:33,-3.18,-0.96,0.22
420,10/17/2010 23:33,-3.18,-0.96,0.22
421,10/18/2010 0:33,-3.18,-0.96,0.22
422,10/18/2010 1:33,-3.18,-0.96,0.22
423,10/18/2010 2:33,-3.18,-0.96,0.22
424,10/18/2010 3:33,-3.18,-0.96,0.22
425,10/18/2010 4:33,-3.18,-0.96,0.22
426,10/18/2010 5:33,-3.21,-0.96,0.19
427,10/18/2010 6:33,-3.21,-0.96,0.19
428,10/18/2010 7:33,-3.21,-0.96,0.19
429,10/18/2010 8:33,-3.24,-0.96,0.19
430,10/18/2010 9:33,-3.21,-0.96,0.22
431,10/18/2010 10:33,-3.18,-0.96,0.19
432,10/18/2010 11:33,-3.12,-0.96,0.19
433,10/18/2010 12:33,-3.09,-0.96,0.19
434,10/18/2010 13:33,-3.04,-0.96,0.19
435,10/18/2010 14:33,-2.98,-0.96,0.19
436,10/18/2010 15:33,-2.89,-0.96,0.19
437,10/18/2010 16:33,-2.83,-0.93,0.19
438,10/18/2010 17:33,-2.77,-0.93,0.19
439,10/18/2010 18:33,-2.71,-0.93,0.19
440,10/18/2010 19:33,-2.68,-0.93,0.19
441,10/18/2010 20:33,-2.65,-0.93,0.19
442,10/18/2010 21:33,-2.63,-0.93,0.19
443,10/18/2010 22:33,-2.6,-0.93,0.19
444,10/18/2010 23:33,-2.6,-0.93,0.19
445,10/19/2010 0:33,-2.57,-0.9,0.19
446,10/19/2010 1:33,-2.54,-0.9,0.19
447,10/19/2010 2:33,-2.54,-0.9,0.19
448,10/19/2010 3:33,-2.51,-0.9,0.19
449,10/19/2010 4:33,-2.51,-0.9,0.19
450,10/19/2010 5:33,-2.51,-0.87,0.19
451,10/19/2010 6:33,-2.51,-0.87,0.19
452,10/19/2010 7:33,-2.54,-0.87,0.19
453,10/19/2010 8:33,-2.54,-0.87,0.19
454,10/19/2010 9:33,-2.54,-0.87,0.19
455,10/19/2010 10:33,-2.54,-0.85,0.19
456,10/19/2010 11:33,-2.51,-0.85,0.19
457,10/19/2010 12:33,-2.48,-0.85,0.19
458,10/19/2010 13:33,-2.45,-0.85,0.19
459,10/19/2010 14:33,-2.42,-0.85,0.19
460,10/19/2010 15:33,-2.39,-0.82,0.19
461,10/19/2010 16:33,-2.36,-0.82,0.19
462,10/19/2010 17:33,-2.31,-0.82,0.19
463,10/19/2010 18:33,-2.28,-0.82,0.19
464,10/19/2010 19:33,-2.25,-0.82,0.19
465,10/19/2010 20:33,-2.25,-0.82,0.19
466,10/19/2010 21:33,-2.22,-0.82,0.19
467,10/19/2010 22:33,-2.19,-0.82,0.19
468,10/19/2010 23:33,-2.19,-0.79,0.19
469,10/20/2010 0:33,-2.19,-0.79,0.19
470,10/20/2010 1:33,-2.19,-0.79,0.19
471,10/20/2010 2:33,-2.19,-0.79,0.19
472,10/20/2010 3:33,-2.19,-0.76,0.19
473,10/20/2010 4:33,-2.22,-0.76,0.19
474,10/20/2010 5:33,-2.25,-0.76,0.19
475,10/20/2010 6:33,-2.31,-0.76,0.19
476,10/20/2010 7:33,-2.33,-0.76,0.19
477,10/20/2010 8:33,-2.39,-0.76,0.19
478,10/20/2010 9:33,-2.42,-0.76,0.19
479,10/20/2010 10:33,-2.48,-0.76,0.19
480,10/20/2010 11:33,-2.54,-0.76,0.19
481,10/20/2010 12:33,-2.57,-0.76,0.19
482,10/20/2010 13:33,-2.6,-0.76,0.19
483,10/20/2010 14:33,-2.63,-0.76,0.19
484,10/20/2010 15:33,-2.6,-0.76,0.19
485,10/20/2010 16:33,-2.6,-0.76,0.19
486,10/20/2010 17:33,-2.6,-0.76,0.19
487,10/20/2010 18:33,-2.6,-0.76,0.19
488,10/20/2010 19:33,-2.57,-0.76,0.19
489,10/20/2010 20:33,-2.6,-0.76,0.19
490,10/20/2010 21:33,-2.6,-0.76,0.19
491,10/20/2010 22:33,-2.6,-0.76,0.19
492,10/20/2010 23:33,-2.63,-0.76,0.19
493,10/21/2010 0:33,-2.65,-0.76,0.19
494,10/21/2010 1:33,-2.68,-0.76,0.19
495,10/21/2010 2:33,-2.71,-0.76,0.19
496,10/21/2010 3:33,-2.77,-0.76,0.19
497,10/21/2010 4:33,-2.83,-0.79,0.19
498,10/21/2010 5:33,-2.89,-0.79,0.19
499,10/21/2010 6:33,-2.95,-0.79,0.19
500,10/21/2010 7:33,-3.01,-0.79,0.19
501,10/21/2010 8:33,-3.07,-0.79,0.19
502,10/21/2010 9:33,-3.12,-0.79,0.19
503,10/21/2010 10:33,-3.18,-0.82,0.19
504,10/21/2010 11:33,-3.21,-0.82,0.19
505,10/21/2010 12:33,-3.24,-0.82,0.19
506,10/21/2010 13:33,-3.24,-0.82,0.19
507,10/21/2010 14:33,-3.24,-0.82,0.19
508,10/21/2010 15:33,-3.24,-0.85,0.19
509,10/21/2010 16:33,-3.24,-0.85,0.19
510,10/21/2010 17:33,-3.24,-0.87,0.19
511,10/21/2010 18:33,-3.24,-0.87,0.19
512,10/21/2010 19:33,-3.24,-0.87,0.19
513,10/21/2010 20:33,-3.27,-0.87,0.19
514,10/21/2010 21:33,-3.3,-0.87,0.19
515,10/21/2010 22:33,-3.33,-0.9,0.19
516,10/21/2010 23:33,-3.36,-0.9,0.19
517,10/22/2010 0:33,-3.42,-0.9,0.19
518,10/22/2010 1:33,-3.48,-0.93,0.19
519,10/22/2010 2:33,-3.54,-0.93,0.19
520,10/22/2010 3:33,-3.57,-0.93,0.19
521,10/22/2010 4:33,-3.63,-0.93,0.19
522,10/22/2010 5:33,-3.69,-0.96,0.19
523,10/22/2010 6:33,-3.75,-0.96,0.19
524,10/22/2010 7:33,-3.81,-0.96,0.19
525,10/22/2010 8:33,-3.87,-0.96,0.19
526,10/22/2010 9:33,-3.9,-0.99,0.19
527,10/22/2010 10:33,-3.96,-0.99,0.16
528,10/22/2010 11:33,-4.02,-0.99,0.16
529,10/22/2010 12:33,-4.05,-1.02,0.19
530,10/22/2010 13:33,-4.08,-1.02,0.16
531,10/22/2010 14:33,-4.11,-1.02,0.16
532,10/22/2010 15:33,-4.11,-1.04,0.16
533,10/22/2010 16:33,-4.08,-1.04,0.16
534,10/22/2010 17:33,-4.05,-1.04,0.16
535,10/22/2010 18:33,-4.02,-1.07,0.16
536,10/22/2010 19:33,-3.99,-1.07,0.16
537,10/22/2010 20:33,-3.96,-1.07,0.16
538,10/22/2010 21:33,-3.93,-1.1,0.16
539,10/22/2010 22:33,-3.9,-1.1,0.16
540,10/22/2010 23:33,-3.87,-1.1,0.16
541,10/23/2010 0:33,-3.84,-1.1,0.16
542,10/23/2010 1:33,-3.84,-1.1,0.16
543,10/23/2010 2:33,-3.81,-1.13,0.16
544,10/23/2010 3:33,-3.78,-1.13,0.16
545,10/23/2010 4:33,-3.75,-1.13,0.16
546,10/23/2010 5:33,-3.72,-1.13,0.16
547,10/23/2010 6:33,-3.72,-1.13,0.16
548,10/23/2010 7:33,-3.69,-1.13,0.16
549,10/23/2010 8:33,-3.66,-1.13,0.16
550,10/23/2010 9:33,-3.66,-1.16,0.16
551,10/23/2010 10:33,-3.6,-1.16,0.16
552,10/23/2010 11:33,-3.6,-1.16,0.16
553,10/23/2010 12:33,-3.57,-1.16,0.16
554,10/23/2010 13:33,-3.54,-1.16,0.16
555,10/23/2010 14:33,-3.51,-1.16,0.16
556,10/23/2010 15:33,-3.45,-1.16,0.16
557,10/23/2010 16:33,-3.42,-1.16,0.16
558,10/23/2010 17:33,-3.36,-1.16,0.16
559,10/23/2010 18:33,-3.3,-1.16,0.16
560,10/23/2010 19:33,-3.27,-1.16,0.16
561,10/23/2010 20:33,-3.21,-1.13,0.16
562,10/23/2010 21:33,-3.15,-1.13,0.16
563,10/23/2010 22:33,-3.09,-1.13,0.16
564,10/23/2010 23:33,-3.04,-1.13,0.16
565,10/24/2010 0:33,-2.98,-1.13,0.16
566,10/24/2010 1:33,-2.95,-1.1,0.16
567,10/24/2010 2:33,-2.89,-1.1,0.16
568,10/24/2010 3:33,-2.86,-1.1,0.16
569,10/24/2010 4:33,-2.8,-1.1,0.16
570,10/24/2010 5:33,-2.77,-1.1,0.16
571,10/24/2010 6:33,-2.77,-1.07,0.16
572,10/24/2010 7:33,-2.77,-1.07,0.14
573,10/24/2010 8:33,-2.77,-1.07,0.16
574,10/24/2010 9:33,-2.77,-1.04,0.14
575,10/24/2010 10:33,-2.77,-1.04,0.16
576,10/24/2010 11:33,-2.77,-1.04,0.16
577,10/24/2010 12:33,-2.77,-1.04,0.16
578,10/24/2010 13:33,-2.71,-1.04,0.16
579,10/24/2010 14:33,-2.68,-1.04,0.14
580,10/24/2010 15:33,-2.63,-1.02,0.14
581,10/24/2010 16:33,-2.57,-1.02,0.16
582,10/24/2010 17:33,-2.54,-1.02,0.14
583,10/24/2010 18:33,-2.48,-0.99,0.14
584,10/24/2010 19:33,-2.45,-0.99,0.14
585,10/24/2010 20:33,-2.42,-0.99,0.14
586,10/24/2010 21:33,-2.42,-0.99,0.14
587,10/24/2010 22:33,-2.39,-0.99,0.14
588,10/24/2010 23:33,-2.39,-0.96,0.14
589,10/25/2010 0:33,-2.36,-0.96,0.16
590,10/25/2010 1:33,-2.36,-0.93,0.14
591,10/25/2010 2:33,-2.33,-0.93,0.14
592,10/25/2010 3:33,-2.31,-0.93,0.16
593,10/25/2010 4:33,-2.31,-0.93,0.16
594,10/25/2010 5:33,-2.28,-0.93,0.14
595,10/25/2010 6:33,-2.25,-0.93,0.16
596,10/25/2010 7:33,-2.25,-0.9,0.14
597,10/25/2010 8:33,-2.22,-0.9,0.14
598,10/25/2010 9:33,-2.19,-0.9,0.16
599,10/25/2010 10:33,-2.19,-0.87,0.14
600,10/25/2010 11:33,-2.19,-0.87,0.16
601,10/25/2010 12:33,-2.16,-0.87,0.14
602,10/25/2010 13:33,-2.13,-0.87,0.14
603,10/25/2010 14:33,-2.1,-0.87,0.14
604,10/25/2010 15:33,-2.07,-0.85,0.16
605,10/25/2010 16:33,-2.07,-0.85,0.14
606,10/25/2010 17:33,-2.04,-0.85,0.16
607,10/25/2010 18:33,-2.02,-0.82,0.14
608,10/25/2010 19:33,-2.02,-0.82,0.14
609,10/25/2010 20:33,-2.04,-0.82,0.16
610,10/25/2010 21:33,-2.07,-0.82,0.14
611,10/25/2010 22:33,-2.1,-0.82,0.16
612,10/25/2010 23:33,-2.13,-0.82,0.14
613,10/26/2010 0:33,-2.16,-0.82,0.16
614,10/26/2010 1:33,-2.19,-0.79,0.16
615,10/26/2010 2:33,-2.19,-0.79,0.16
616,10/26/2010 3:33,-2.22,-0.79,0.14
617,10/26/2010 4:33,-2.25,-0.79,0.16
618,10/26/2010 5:33,-2.28,-0.79,0.16
619,10/26/2010 6:33,-2.28,-0.79,0.14
620,10/26/2010 7:33,-2.31,-0.79,0.16
621,10/26/2010 8:33,-2.31,-0.79,0.16
622,10/26/2010 9:33,-2.33,-0.79,0.16
623,10/26/2010 10:33,-2.33,-0.79,0.16
624,10/26/2010 11:33,-2.36,-0.79,0.16
625,10/26/2010 12:33,-2.36,-0.79,0.14
626,10/26/2010 13:33,-2.36,-0.79,0.16
627,10/26/2010 14:33,-2.36,-0.79,0.16